Weather History for Wolf Point, MT

Change the Weather History Date:

Monday, November 19, 2012

  Actual Average Record
Temperature  
Mean Temperature 32 °F -  
Max Temperature 49 °F 38 °F 57 °F (2013)
Min Temperature 15 °F 13 °F -10 °F (2011)
Degree Days  
Heating Degree Days 33    
Cooling Degree Days 0    
Moisture  
Dew Point 25 °F    
Average Humidity 75    
Maximum Humidity 92    
Minimum Humidity 54    
Precipitation  
Precipitation 0.00 in 0.01 in 0.05 in (2011)
Month to date precipitation 0.27 0.28  
Year to date precipitation 10.14 11.77  
Sea Level Pressure  
Sea Level Pressure 30.05 in    
Wind  
Wind Speed 3 mph (East)    
Max Wind Speed 7 mph    
Max Gust Speed 16 mph    
Visibility 10 miles    
Events      
T = Trace of Precipitation, MM = Missing Value Source: NWS Daily Summary

Daily Weather History Graph

Daily Weather History Graph

Search for Another Location

Airport:

Trip Planner

Search our weather history database for the weather conditions in past years. The results will help you decide how hot, cold, wet, or windy it might be!

Date:

Astronomy

Nov. 19, 2012 Rise Set
Actual Time 7:15 AM MST 4:19 PM MST
Civil Twilight 6:41 AM MST 4:53 PM MST
Nautical Twilight 6:03 AM MST 5:32 PM MST
Astronomical Twilight 5:26 AM MST 6:08 PM MST
Moon 12:09 PM MST (11/19) 11:02 PM MST (11/19)
Length of Visible Light 10h 12m
Length of Day
9h 03m
Waxing Crescent, 41% of the Moon is Illuminated
Nov 19
Waxing Crescent
Nov 20
First Quarter
Nov 28
Full
Dec 6
Last Quarter
Dec 13
New

Hourly Weather History & Observations

Time (MST) Temp. Windchill Dew Point Humidity Pressure Visibility Wind Dir Wind Speed Gust Speed Precip Events Conditions
12:53 AM 21.0 °F - 19.0 °F 92% 30.10 in 10.0 mi Calm Calm - N/A   Clear
1:53 AM 19.9 °F 12.1 °F 18.0 °F 92% 30.10 in 10.0 mi West 5.8 mph - N/A   Clear
2:53 AM 21.0 °F 12.4 °F 19.0 °F 92% 30.12 in 10.0 mi WSW 6.9 mph - N/A   Clear
3:53 AM 19.9 °F - 17.1 °F 89% 30.11 in 10.0 mi Calm Calm - N/A   Clear
4:53 AM 17.1 °F 11.7 °F 14.0 °F 88% 30.12 in 10.0 mi ENE 3.5 mph - N/A   Clear
5:53 AM 15.1 °F 9.4 °F 12.9 °F 91% 30.13 in 10.0 mi NE 3.5 mph - N/A   Clear
6:53 AM 16.0 °F 10.4 °F 14.0 °F 92% 30.14 in 10.0 mi ENE 3.5 mph - N/A   Clear
7:53 AM 19.0 °F 11.1 °F 16.0 °F 88% 30.15 in 10.0 mi NE 5.8 mph - N/A   Clear
8:53 AM 23.0 °F 18.4 °F 19.9 °F 88% 30.14 in 10.0 mi ENE 3.5 mph - N/A   Clear
9:53 AM 28.9 °F 25.2 °F 25.0 °F 85% 30.13 in 10.0 mi ENE 3.5 mph - N/A   Clear
10:53 AM 36.0 °F - 28.9 °F 76% 30.11 in 10.0 mi Calm Calm - N/A   Clear
11:53 AM 39.0 °F 34.8 °F 30.9 °F 73% 30.08 in 10.0 mi ENE 5.8 mph - N/A   Clear
12:53 PM 41.0 °F 38.0 °F 32.0 °F 70% 30.04 in 10.0 mi NE 4.6 mph - N/A   Clear
1:53 PM 42.1 °F 38.4 °F 33.1 °F 70% 30.04 in 10.0 mi NE 5.8 mph - N/A   Clear
2:53 PM 42.1 °F - 33.1 °F 70% 30.01 in 10.0 mi Calm Calm - N/A   Clear
3:53 PM 48.0 °F - 32.0 °F 54% 30.02 in 10.0 mi SW 4.6 mph - N/A   Clear
4:53 PM 46.0 °F 43.9 °F 30.9 °F 56% 30.01 in 10.0 mi South 4.6 mph - N/A   Clear
5:53 PM 44.1 °F 40.8 °F 30.0 °F 58% 30.01 in 10.0 mi SW 5.8 mph - N/A   Clear
6:53 PM 43.0 °F 38.8 °F 30.0 °F 60% 30.00 in 10.0 mi WSW 6.9 mph - N/A   Clear
7:53 PM 43.0 °F 39.5 °F 30.0 °F 60% 29.98 in 10.0 mi WSW 5.8 mph 16.1 mph N/A   Clear
8:53 PM 41.0 °F 39.0 °F 28.9 °F 62% 29.96 in 10.0 mi Variable 3.5 mph - N/A   Clear
9:53 PM 37.0 °F - 28.9 °F 73% 29.94 in 10.0 mi Calm Calm - N/A   Clear
10:53 PM 42.1 °F 39.2 °F 30.0 °F 62% 29.90 in 10.0 mi SSW 4.6 mph - N/A   Clear
11:53 PM 43.0 °F - 30.9 °F 62% 29.89 in 10.0 mi Calm Calm - N/A   Clear